Find Starlink 1221

NORAD ID: 45227 Int'l Des: 2020-012 Owner: SPXS Country: US Constellation: starlink operational
LEOCIRCULAR

当前视图

正在加载3D地球...

About Starlink 1221

Starlink 1221 (NORAD 45227) is a starlink constellation satellite (v1.0) launched Feb 17, 2020 by SPXS of US. It operates in LEO, CIRCULAR orbit with a mass of 260.00 kg.

关于 Starlink 1221

正在加载描述...

即将过境

Passes for default location (London). Set your location on the main map for personalized predictions.

高度历史

Loading altitude history...

两行轨道根数

1 45227U 20012BB 26170.95027169 .00012980 00000-0 27772-3 0 9998
2 45227 53.0634 143.7771 0003273 6.1006 354.0039 15.45176260352507
Epoch: Jun 19, 2026 • Age: 8 hours

当前状态

高度 436.5 km
速度 7.66 km/s
星下点 46.33°N, 103.91°W
发射日期 Feb 17, 2020
运行时间 6.3 years
类型 internet

技术详情

分类 Payload
质量 260.00 kg
干质量 248.00 kg
总质量 260.00 kg
长度 0.20 m
直径 2.80 m
跨度 9.00 m
形状 Box + pan
制造商 SPXS
平台类型 Starlink
阶段状态 In Orbit
所有者/国家 SPXS/US

Most Searched